Hourly Data Report for October 02, 2017

All times are specified in Local Standard Time (LST). Add 1 hour to adjust for Daylight Saving Time where and when it is observed.

NAPPAN AUTO
NOVA SCOTIA

45°45'34.400" N
64°14'29.200" W
19.80 m
8203702
71311
XNP

Download Data

Hourly Data (October 2017)
Hourly Data Report for October 2, 2017
Temp Definition
°C
Dew Point Temp Definition
°C
Rel Hum Definition
%
Wind Dir Definition
10's deg

Wind Spd Definition
km/h
Visibility Definition
km
Stn Press Definition
kPa
Hmdx Definition


Wind Chill Definition


Weather Definition


TIME
00:00 7.0 6.4 96 15 6   101.75     LegendNANA
01:00 5.2 4.7 97 16 5   101.77     LegendNANA
02:00 6.6 5.1 90 0 1   101.76     LegendNANA
03:00 6.3 4.8 90 31 4   101.77     LegendNANA
04:00 9.3 5.7 78 35 21   101.82     LegendNANA
05:00 8.7 5.7 82 36 18   101.92     LegendNANA
06:00 6.8 5.1 89 2 9   102.04     LegendNANA
07:00 6.8 5.1 89 1 10   102.17     LegendNANA
08:00 8.1 5.8 86 1 13   102.25     LegendNANA
09:00 10.6 5.0 68 2 20   102.31     LegendNANA
10:00 10.8 2.9 58 1 28   102.40     LegendNANA
11:00 11.5 1.9 52 36 28   102.47     LegendNANA
12:00 11.4 2.3 54 36 28   102.55     LegendNANA
13:00 10.3 2.5 58 1 29   102.58     LegendNANA
14:00 12.2 3.5 55 1 31   102.60     LegendNANA
15:00 11.7 2.4 53 35 32   102.67     LegendNANA
16:00 9.6 2.2 60 2 27   102.75     LegendNANA
17:00 8.9 1.8 61 3 23   102.83     LegendNANA
18:00 6.8 2.0 71 4 8   102.93     LegendNANA
19:00 5.4 2.2 80 4 8   103.00     LegendNANA
20:00 4.4 1.9 84 1 5   103.09     LegendNANA
21:00 2.8 1.1 88 1 6   103.14     LegendNANA
22:00 3.5 1.9 89 3 4   103.15     LegendNANA
23:00 1.3 0.1 92 9 3   103.17     LegendNANA

Notes on Data Quality.

Legend

  • E = Estimated
  • M = Missing
  • NA = Not Available
  • ‡ = Partner data that is not subject to review by the National Climate Archives
Date modified: